Regional Weather Roundup
Issued by NWS

Home | Current Version | Previous Version | Graphics & Text | Print | Product List | Glossary On
Versions: 1 2 3 4 5 6 7 8 9 10 11 12 13 14 15 16 17 18 19 20 21 22 23 24 25 26 27 28 29 30 31 32 33 34 35 36 37 38 39 40 41 42 43 44 45 46 47 48 49 50
000
ASUS45 KTFX 290110
RWRMT
MONTANA REGIONAL WEATHER ROUNDUP
NATIONAL WEATHER SERVICE GREAT FALLS MT
700 PM MDT TUE MAR 28 2017

NOTE: "FAIR" INDICATES FEW OR NO CLOUDS BELOW 12000 FEET WITH NO
SIGNIFICANT WEATHER AND/OR OBSTRUCTIONS TO VISIBILITY.

MTZ001>007-043-290200-
WEST OF THE DIVIDE

CITY           SKY/WX    TMP DP  RH WIND       PRES   REMARKS
KALISPELL      CLOUDY    45  30  55 SW9       30.15R
MISSOULA       CLOUDY    47  30  51 W12       30.19R
BUTTE          CLEAR     45  18  34 NW12      30.12R
MULLAN PASS    SNOW      28  28 100 SW7       30.15R VSB 1/2 WCI  21
ANACONDA         N/A     45  18  33 W17       30.12S
DEER LODGE       N/A     43  23  45 NW14G20   30.15R
EUREKA           N/A     45  30  57 S8        30.13F
HAMILTON         N/A     48  27  43 W5        30.19R
PLAINS           N/A     48  31  52 W1        30.18
RONAN            N/A     46  30  54 SE3       30.20S
$$

MTZ008-052>055-290200-
SOUTHWEST MONTANA

CITY           SKY/WX    TMP DP  RH WIND       PRES   REMARKS
BOZEMAN        CLEAR     52  22  30 CALM      30.09S
DILLON         CLOUDY    48  20  32 W13G23    30.09S
W YELLOWSTONE  CLEAR     37  19  48 SW14      30.14S WCI  29
ENNIS          CLEAR     48  19  32 SE5       30.15S
THREE FORKS      N/A     53  53 100 CALM      30.07S
TWIN BRIDGES     N/A     51  17  26 CALM      30.08F
$$

MTZ009-010-012-014-046-048-049-054-290200-
EAST SLOPES AND CENTRAL MONTANA

CITY           SKY/WX    TMP DP  RH WIND       PRES   REMARKS
CUT BANK       MOCLDY    43  24  47 SW29G37   30.00F
GREAT FALLS    CLOUDY    48  21  34 W16       30.04R
MALMSTROM AFB  PTCLDY    50  22  32 W18G26    30.05R
HELENA         CLEAR     51  23  33 W12       30.08S
AUGUSTA        MOCLDY    44  21  40 W25G32    30.06R
BOWMANS CRNR     N/A     43  22  42 W16       30.05R
CHOTEAU          N/A     45  23  42 W18       30.05R
CONRAD           N/A     47  32  56 W3        30.05R
FAIRFIELD        N/A     46  22  38 W15       30.04R
POWER            N/A     46  22  39 W14       30.04R
RAYNESFORD     MOCLDY    49  20  32 W15G24    30.05S
$$

MTZ011-013-016-021-045-047-050-051-290200-
NORTH CENTRAL MONTANA

CITY           SKY/WX    TMP DP  RH WIND       PRES   REMARKS
HAVRE          CLOUDY    53  23  31 SW18      29.99S
LEWISTOWN      CLEAR     49  19  30 W8        30.04S
N BAR RANCH      N/A     48  18  29 CALM      30.08R
CHINOOK          N/A     55  21  26 SW14      30.00R
DENTON           N/A     49  21  33 W6        30.01S
FORT BENTON      N/A     54  21  28 MISG      30.03F
GEYSER         MOCLDY    47  20  33 W14       30.04R
GRASS RANGE      N/A     50  20  30 W8        30.02R
JUDITH GAP       N/A     48  20  33 N7        30.05S
STANFORD         N/A     46  23  40 W7        30.04S
WINIFRED         N/A     49  21  33 W10       30.04S
$$

MTZ017>020-022>027-061-062-290200-
NORTHEAST MONTANA

CITY           SKY/WX    TMP DP  RH WIND       PRES   REMARKS
GLASGOW        CLEAR     55  29  36 S9        30.03S
JORDAN           N/A     54  26  34 CALM      30.04S
SIDNEY         MOCLDY    45  42  89 E3        30.09S
WOLF POINT     CLEAR     54  37  52 SE3       30.05S
MALTA          CLEAR     54  25  32 SW8       30.02R
PLENTYWOOD       N/A     45  39  81 SE8       30.06S
POPLAR           N/A     52  39  62 S5        30.07S
SCOBEY           N/A     50  34  54 SE9       30.02
$$

MTZ028>42-056>058-290200-
SOUTHCENTRAL AND SOUTHEAST MONTANA

CITY           SKY/WX    TMP DP  RH WIND       PRES   REMARKS
BAKER          CLEAR     49  37  63 N13       30.08R
BILLINGS       PTCLDY    54  22  28 CALM      30.06S
LIVINGSTON     CLEAR     50  22  33 W14       30.08R
MILES CITY     CLEAR     53  33  46 CALM      30.08R
BIG TIMBER     CLEAR     48  21  34 W15G24    30.09S
EKALAKA          N/A     47  36  65 NW7       30.06
FORSYTH          N/A     54  30  40 CALM      30.07F
HARLOWTON        N/A     49  19  29 W16       30.05F
LAUREL           N/A     53  24  32 CALM      30.05F
$$

REGIONAL REPORTS...DAKOTAS

CITY           SKY/WX    TMP DP  RH WIND       PRES   REMARKS
WILLISTON      LGT RAIN  45  42  89 S3        30.09F FOG
MINOT          CLOUDY    50  43  77 E12       30.09R
DICKINSON      CLOUDY    50  38  63 W12       30.06R THUNDER
BEACH          MOCLDY    46  39  76 N9G16     30.11S
TIOGA          LGT RAIN  46  46 100 W10       30.10S
WATFORD CITY     N/A     43  43 100 N7        30.08F
BISMARCK       MOCLDY    56  38  50 SE14      30.12R
GRAND FORKS    MOCLDY    44  42  93 N7        30.20R
FARGO          CLOUDY    53  40  61 N5        30.17R
BUFFALO SD       N/A     48  45  89 SE14      30.02R
RAPID CITY     LGT RAIN  44  42  93 SE5       30.10R
$$

REGIONAL REPORTS...WYOMING/IDAHO/WASHINGTON

CITY           SKY/WX    TMP DP  RH WIND       PRES   REMARKS
GILLETTE       CLOUDY    45  37  73 NW14      30.10R
SHERIDAN       PTCLDY    45  35  68 CALM      30.12R
BUFFALO WY     CLOUDY    42  34  73 N8        30.13R
CODY           CLEAR     47  27  45 N7        30.09S
YELLOWSTONE LA   N/A     36  13  38 W7        30.16R WCI  30
IDAHO FALLS    CLEAR     48  30  49 SW14      30.18R
SALMON         CLOUDY    52  19  28 CALM      30.12S
BOISE          PTSUNNY   53  30  41 N12       30.25F
SPOKANE        CLOUDY    44  38  79 S18       30.18F
$$

REGIONAL REPORTS...ALBERTA

CITY           SKY/WX    TMP DP  RH WIND       PRES   REMARKS
EDMONTON       MOCLDY    45  39  81 NE7       29.82S
CALGARY        CLOUDY    50  18  27 W16G23    29.83S
LETHBRIDGE     MOCLDY    48  25  40 W23G30    29.93R
MEDICINE HAT   CLOUDY    52  25  35 SW16      29.92R
WATERTON GATE    N/A     43  25  49 SW18G28     N/A
CARDSTON         N/A     45  23  42 W18G29      N/A
MILK RIVER       N/A     46  25  42 W20G26      N/A
$$

REGIONAL REPORTS...SASKATCHEWAN

CITY           SKY/WX    TMP DP  RH WIND       PRES   REMARKS
SWIFT CURRENT  CLOUDY    50  25  37 SW8       29.94R
REGINA         CLOUDY    37  36  93 SE17G23   30.05S WCI  28
SASKATOON      PTCLDY    46  37  71 E13G18    29.96S
CYPRESS HILLS    N/A     45  19  36 SW9         N/A
VAL MARIE        N/A     50  23  34 SW8         N/A
ROCKGLEN         N/A     48  27  43 W7          N/A
$$



USA.gov is the U.S. government's official web portal to all federal, state and local government web resources and services.